JIK weather

Ikaria Airport
Ikaria Island, Samos, Greece

Public forecast

Using degrees Celsius for public forecast. Weather courtesy of forecast.io.

METAR (pilot weather report)

Closest report is Samos Airport, 26.8 nm (49.7 km) E. Retrieved 2018/12/13 06:20 UTC (0 seconds ago):

LGSM 130620Z 00000KT CAVOK 04/00 Q1023

TAF (pilot weather forecast)

Forecast is more than 12 hours old.

Closest forecast is Samos Airport, 26.8 nm (49.7 km) E. Retrieved 2012/09/21 03:06 UTC (6 years ago):

TAF LGSM 210200Z 2103/2115 VRB05KT 9999 FEW020 BECMG 2104/2106 30012KT